| time (UTC) | temp F | wind direction | speed MPH | gust MPH | rain 1hr in | rain 24hr in | rain mn in | humidity % | barometer mb |
| 20260508073009 | 33 | 180 | 4.0 | 8.0 | 0.02 | 0.04 | 0.03 | 76 | 1023.5 |
| 20260508071521 | 34 | 116 | 5.0 | 7.0 | 0.02 | 0.03 | 0.02 | 75 | 1023.3 |
| 20260508070006 | 34 | 101 | 4.0 | 6.0 | 0.02 | 0.03 | 0.02 | 78 | 1023.2 |
| 20260508064505 | 32 | 85 | 5.0 | 6.0 | 0.02 | 0.02 | 0.02 | 80 | 1023.1 |
| 20260508063003 | 35 | 103 | 0.0 | 2.0 | 0.02 | 0.02 | 0.02 | 78 | 1023.1 |
| 20260508061604 | 34 | 103 | 0.0 | 2.0 | 0.00 | 0.01 | 0.00 | 79 | 1023.0 |
| 20260508060057 | 32 | 103 | 0.0 | 2.0 | 0.00 | 0.01 | 0.00 | 81 | 1022.9 |
| 20260508054554 | 32 | 103 | 1.0 | 2.0 | 0.00 | 0.01 | 0.00 | 81 | 1022.8 |
| 20260508053051 | 30 | 103 | 0.0 | 2.0 | 0.00 | 0.01 | 0.00 | 83 | 1022.7 |
| 20260508051549 | 30 | 101 | 2.0 | 4.0 | 0.00 | 0.01 | 0.00 | 83 | 1022.5 |
| 20260508050047 | 30 | 119 | 0.0 | 2.0 | 0.00 | 0.01 | 0.00 | 83 | 1022.3 |
| 20260508044545 | 30 | 117 | 0.0 | 3.0 | 0.00 | 0.01 | 0.00 | 84 | 1022.4 |
| 20260508043046 | 29 | 120 | 0.0 | 2.0 | 0.00 | 0.01 | 0.00 | 84 | 1022.2 |
| 20260508041543 | 29 | 121 | 0.0 | 2.0 | 0.00 | 0.01 | 0.00 | 85 | 1022.1 |
| 20260508040041 | 29 | 121 | 0.0 | 2.0 | 0.00 | 0.01 | 0.00 | 84 | 1022.0 |
| 20260508034541 | 29 | 122 | 0.0 | 2.0 | 0.00 | 0.01 | 0.00 | 84 | 1021.9 |
| 20260508033039 | 28 | 121 | 0.0 | 2.0 | 0.00 | 0.01 | 0.00 | 86 | 1021.9 |
| 20260508031538 | 28 | 121 | 0.0 | 2.0 | 0.00 | 0.01 | 0.00 | 85 | 1021.8 |
| 20260508030042 | 28 | 110 | 0.0 | 2.0 | 0.00 | 0.01 | 0.00 | 86 | 1021.7 |
| 20260508024538 | 27 | 110 | 0.0 | 2.0 | 0.00 | 0.01 | 0.00 | 87 | 1021.6 |
| 20260508023032 | 27 | 110 | 0.0 | 2.0 | 0.00 | 0.01 | 0.00 | 87 | 1021.6 |
| 20260508021536 | 26 | 110 | 0.0 | 3.0 | 0.00 | 0.01 | 0.00 | 87 | 1021.4 |
| 20260508020029 | 26 | 118 | 3.0 | 4.0 | 0.00 | 0.01 | 0.00 | 87 | 1021.1 |
| 20260508014527 | 26 | 61 | 0.0 | 3.0 | 0.00 | 0.01 | 0.00 | 89 | 1021.1 |
| 20260508013036 | 26 | 75 | 3.0 | 6.0 | 0.00 | 0.01 | 0.00 | 89 | 1020.9 |
| 20260508011522 | 26 | 180 | 2.0 | 3.0 | 0.00 | 0.01 | 0.00 | 91 | 1020.7 |
| 20260508010019 | 27 | 96 | 0.0 | 2.0 | 0.00 | 0.01 | 0.00 | 92 | 1020.7 |
| 20260508004533 | 27 | 96 | 0.0 | 2.0 | 0.00 | 0.01 | 0.00 | 92 | 1020.5 |
| 20260508003021 | 26 | 97 | 1.0 | 4.0 | 0.00 | 0.01 | 0.00 | 92 | 1020.4 |
| 20260508001517 | 27 | 99 | 2.0 | 5.0 | 0.00 | 0.01 | 0.00 | 94 | 1020.1 |
| 20260508000010 | 27 | 180 | 2.0 | 3.0 | 0.00 | 0.01 | 0.00 | 93 | 1020.0 |
| 20260507234508 | 28 | 63 | 0.0 | 2.0 | 0.00 | 0.01 | 0.00 | 93 | 1020.0 |
| 20260507233006 | 28 | 53 | 0.0 | 2.0 | 0.00 | 0.01 | 0.00 | 93 | 1019.8 |
| 20260507231505 | 28 | 53 | 0.0 | 2.0 | 0.00 | 0.01 | 0.00 | 93 | 1019.7 |
| 20260507230004 | 28 | 105 | 2.0 | 5.0 | 0.00 | 0.01 | 0.00 | 93 | 1019.6 |
| 20260507224502 | 29 | 98 | 4.0 | 7.0 | 0.00 | 0.01 | 0.00 | 93 | 1019.5 |
| 20260507223101 | 29 | 143 | 1.0 | 2.0 | 0.00 | 0.01 | 0.00 | 93 | 1019.5 |
| 20260507221556 | 30 | 146 | 1.0 | 2.0 | 0.00 | 0.01 | 0.00 | 93 | 1019.4 |
| 20260507220052 | 30 | 200 | 0.0 | 2.0 | 0.00 | 0.01 | 0.01 | 93 | 1019.3 |
| 20260507214614 | 30 | 207 | 0.0 | 1.0 | 0.00 | 0.01 | 0.01 | 93 | 1019.2 |
| 20260507213103 | 30 | 207 | 0.0 | 1.0 | 0.00 | 0.01 | 0.01 | 93 | 1019.1 |
| 20260507211605 | 31 | 207 | 0.0 | 2.0 | 0.00 | 0.01 | 0.01 | 93 | 1019.0 |
| 20260507210053 | 31 | 207 | 0.0 | 2.0 | 0.00 | 0.01 | 0.01 | 92 | 1018.9 |
| 20260507204547 | 31 | 295 | 1.0 | 3.0 | 0.00 | 0.01 | 0.01 | 93 | 1018.8 |
| 20260507203052 | 31 | 332 | 2.0 | 6.0 | 0.00 | 0.01 | 0.01 | 92 | 1018.8 |
| 20260507201546 | 31 | 328 | 5.0 | 7.0 | 0.00 | 0.01 | 0.01 | 90 | 1018.6 |
| 20260507200042 | 32 | 180 | 1.0 | 2.0 | 0.00 | 0.01 | 0.01 | 88 | 1018.4 |
| 20260507194608 | 32 | 247 | 0.0 | 2.0 | 0.00 | 0.01 | 0.01 | 87 | 1018.2 |
| 20260507193038 | 33 | 247 | 0.0 | 2.0 | 0.00 | 0.01 | 0.01 | 86 | 1018.1 |
| 20260507191542 | 33 | 248 | 2.0 | 3.0 | 0.00 | 0.01 | 0.01 | 87 | 1017.9 |
| 20260507190036 | 33 | 253 | 2.0 | 5.0 | 0.00 | 0.01 | 0.01 | 86 | 1017.8 |
| 20260507184539 | 33 | 254 | 4.0 | 6.0 | 0.00 | 0.01 | 0.01 | 86 | 1017.7 |
| 20260507183037 | 33 | 268 | 2.0 | 5.0 | 0.00 | 0.01 | 0.01 | 86 | 1017.6 |
| 20260507181531 | 33 | 261 | 3.0 | 6.0 | 0.00 | 0.01 | 0.01 | 85 | 1017.5 |
| 20260507180032 | 33 | 180 | 5.0 | 6.0 | 0.00 | 0.01 | 0.01 | 84 | 1017.5 |
| 20260507174539 | 33 | 180 | 3.0 | 7.0 | 0.00 | 0.01 | 0.01 | 85 | 1017.3 |
| 20260507173035 | 34 | 233 | 2.0 | 7.0 | 0.00 | 0.01 | 0.01 | 86 | 1017.3 |
| 20260507171527 | 34 | 281 | 5.0 | 8.0 | 0.00 | 0.01 | 0.01 | 85 | 1017.1 |
| 20260507170025 | 34 | 255 | 4.0 | 8.0 | 0.00 | 0.01 | 0.01 | 86 | 1017.1 |
| 20260507164524 | 33 | 240 | 4.0 | 6.0 | 0.00 | 0.01 | 0.01 | 86 | 1016.9 |
| 20260507163023 | 33 | 255 | 5.0 | 7.0 | 0.00 | 0.01 | 0.01 | 88 | 1016.9 |
| 20260507161521 | 33 | 180 | 4.0 | 9.0 | 0.00 | 0.01 | 0.01 | 89 | 1016.8 |
| 20260507160023 | 32 | 281 | 4.0 | 10.0 | 0.00 | 0.01 | 0.01 | 90 | 1016.8 |
| 20260507154530 | 32 | 180 | 11.0 | 18.0 | 0.00 | 0.01 | 0.01 | 90 | 1016.7 |
| 20260507153030 | 33 | 277 | 11.0 | 15.0 | 0.00 | 0.01 | 0.01 | 87 | 1016.5 |
| 20260507151519 | 35 | 294 | 1.0 | 4.0 | 0.00 | 0.01 | 0.01 | 78 | 1016.5 |
| 20260507150016 | 36 | 224 | 0.0 | 3.0 | 0.00 | 0.01 | 0.01 | 76 | 1016.5 |
| 20260507144514 | 35 | 209 | 0.0 | 3.0 | 0.00 | 0.01 | 0.01 | 77 | 1016.3 |
| 20260507143021 | 35 | 305 | 0.0 | 2.0 | 0.00 | 0.01 | 0.01 | 79 | 1016.2 |
| 20260507141512 | 34 | 316 | 2.0 | 3.0 | 0.00 | 0.01 | 0.01 | 80 | 1016.2 |
| 20260507140013 | 35 | 319 | 1.0 | 4.0 | 0.00 | 0.01 | 0.01 | 79 | 1016.1 |
| 20260507134510 | 35 | 124 | 0.0 | 2.0 | 0.00 | 0.01 | 0.01 | 84 | 1016.1 |
| 20260507133009 | 34 | 110 | 1.0 | 5.0 | 0.00 | 0.01 | 0.01 | 87 | 1016.0 |
| 20260507131516 | 32 | 330 | 3.0 | 7.0 | 0.00 | 0.01 | 0.01 | 90 | 1016.0 |
| 20260507130012 | 31 | 307 | 6.0 | 17.0 | 0.00 | 0.01 | 0.01 | 90 | 1016.0 |
| 20260507124504 | 34 | 293 | 11.0 | 15.0 | 0.00 | 0.01 | 0.01 | 75 | 1015.7 |
| 20260507123004 | 35 | 276 | 5.0 | 9.0 | 0.00 | 0.01 | 0.01 | 70 | 1015.5 |
| 20260507121502 | 35 | 272 | 2.0 | 5.0 | 0.00 | 0.01 | 0.01 | 69 | 1015.6 |
| 20260507120001 | 35 | 271 | 0.0 | 5.0 | 0.00 | 0.02 | 0.01 | 69 | 1015.5 |
| 20260507114604 | 36 | 319 | 0.0 | 3.0 | 0.00 | 0.02 | 0.01 | 68 | 1015.4 |
| 20260507113101 | 36 | 47 | 0.0 | 2.0 | 0.00 | 0.02 | 0.01 | 67 | 1015.3 |
| 20260507111556 | 35 | 58 | 3.0 | 6.0 | 0.00 | 0.02 | 0.01 | 68 | 1015.2 |
| 20260507110054 | 36 | 82 | 1.0 | 4.0 | 0.00 | 0.02 | 0.01 | 70 | 1015.2 |
| 20260507104551 | 35 | 79 | 2.0 | 5.0 | 0.00 | 0.02 | 0.01 | 70 | 1015.1 |
| 20260507103050 | 36 | 105 | 2.0 | 5.0 | 0.00 | 0.02 | 0.01 | 70 | 1015.0 |
| 20260507101549 | 34 | 63 | 3.0 | 6.0 | 0.00 | 0.02 | 0.01 | 73 | 1015.0 |
| 20260507100047 | 34 | 79 | 4.0 | 7.0 | 0.00 | 0.03 | 0.01 | 73 | 1014.9 |
| 20260507094541 | 34 | 180 | 2.0 | 5.0 | 0.00 | 0.03 | 0.01 | 73 | 1014.9 |
| 20260507093045 | 33 | 84 | 2.0 | 8.0 | 0.00 | 0.03 | 0.01 | 75 | 1014.8 |
| 20260507091535 | 32 | 77 | 4.0 | 8.0 | 0.00 | 0.03 | 0.01 | 77 | 1014.8 |
| 20260507090034 | 31 | 180 | 5.0 | 9.0 | 0.00 | 0.05 | 0.01 | 77 | 1014.7 |
| 20260507084532 | 31 | 106 | 6.0 | 10.0 | 0.00 | 0.05 | 0.01 | 77 | 1014.6 |
| 20260507083032 | 31 | 180 | 8.0 | 10.0 | 0.01 | 0.05 | 0.01 | 75 | 1014.5 |
| 20260507081531 | 32 | 180 | 4.0 | 6.0 | 0.01 | 0.05 | 0.01 | 73 | 1014.4 |
| 20260507080037 | 31 | 180 | 5.0 | 7.0 | 0.01 | 0.10 | 0.01 | 72 | 1014.2 |
| 20260507074528 | 30 | 180 | 6.0 | 8.0 | 0.01 | 0.10 | 0.01 | 74 | 1014.1 |